GFSWCAN_prec_precacc12_105.txt.gz
Total_Precipitation_Accumulation
0.05 0.05 0.06 0.05 0.03 0.01 0.01 0.01 0.02 0.03 0.02 0.01 0.02 0.03 0.03 0.06 0.13 0.17 0.05 0.05 0.13 0.11 0.01 0.01 0.00 0.00 0.00 0.01 0.03 0.05 0.10 0.15 0.17 0.15 0.16 0.07 0.03 0.07 0.17 0.33 0.23 0.04 0.04 0.03 0.02 0.04 0.01 0.00 0.01 0.02 0.01 0.00 0.00 0.00
0.06 0.07 0.05 0.05 0.04 0.02 0.01 0.01 0.01 0.01 0.02 0.03 0.03 0.04 0.04 0.03 0.10 0.24 0.11 0.04 0.10 0.13 0.03 0.01 0.00 0.00 0.00 0.00 0.02 0.09 0.21 0.31 0.22 0.22 0.19 0.13 0.13 0.13 0.13 0.24 0.62 0.25 0.02 0.01 0.00 0.00 0.00 0.00 0.03 0.03 0.00 0.00 0.00 0.00
0.02 0.02 0.04 0.05 0.04 0.02 0.02 0.01 0.01 0.01 0.02 0.02 0.04 0.04 0.06 0.09 0.14 0.27 0.14 0.07 0.21 0.31 0.11 0.00 0.00 0.00 0.00 0.00 0.02 0.13 0.17 0.45 0.59 0.44 0.34 0.23 0.30 0.25 0.19 0.26 0.55 0.45 0.14 0.08 0.07 0.01 0.00 0.02 0.02 0.03 0.01 0.00 0.00 0.00
0.02 0.02 0.01 0.02 0.04 0.04 0.03 0.02 0.02 0.01 0.01 0.02 0.03 0.04 0.05 0.09 0.16 0.35 0.35 0.15 0.14 0.26 0.11 0.00 0.00 0.00 0.00 0.00 0.00 0.02 0.04 0.14 0.19 0.23 0.21 0.16 0.07 0.09 0.20 0.15 0.22 0.49 0.46 0.09 0.11 0.13 0.05 0.04 0.02 0.01 0.00 0.00 0.00 0.00
0.03 0.03 0.03 0.02 0.03 0.04 0.05 0.04 0.03 0.03 0.02 0.02 0.03 0.03 0.06 0.09 0.13 0.31 0.42 0.24 0.08 0.11 0.09 0.04 0.00 0.01 0.02 0.00 0.00 0.00 0.01 0.02 0.03 0.09 0.08 0.04 0.03 0.06 0.05 0.07 0.38 0.32 0.55 0.41 0.43 0.25 0.18 0.09 0.07 0.01 0.01 0.00 0.00 0.00
0.04 0.04 0.06 0.06 0.05 0.04 0.03 0.04 0.04 0.04 0.04 0.03 0.03 0.05 0.07 0.13 0.33 0.47 0.79 0.48 0.16 0.10 0.41 0.17 0.06 0.03 0.04 0.01 0.01 0.01 0.02 0.04 0.08 0.08 0.05 0.03 0.04 0.12 0.13 0.07 0.15 0.10 0.15 0.38 0.66 0.45 0.43 0.10 0.09 0.02 0.00 0.00 0.00 0.00
0.06 0.06 0.06 0.06 0.06 0.07 0.06 0.05 0.04 0.04 0.07 0.07 0.04 0.07 0.11 0.20 0.41 0.38 0.25 0.09 0.07 0.37 0.92 0.28 0.04 0.03 0.01 0.01 0.02 0.04 0.05 0.07 0.06 0.05 0.05 0.02 0.03 0.12 0.10 0.03 0.02 0.13 0.10 0.19 0.64 0.51 0.64 0.35 0.17 0.07 0.00 0.00 0.00 0.00
0.09 0.07 0.07 0.07 0.06 0.06 0.07 0.08 0.08 0.07 0.08 0.13 0.09 0.09 0.13 0.27 0.49 0.28 0.14 0.16 0.13 0.61 0.50 0.22 0.07 0.09 0.17 0.19 0.08 0.08 0.11 0.15 0.15 0.08 0.03 0.01 0.01 0.08 0.06 0.00 0.01 0.02 0.01 0.09 0.13 0.06 0.14 0.14 0.02 0.00 0.00 0.00 0.00 0.00
0.09 0.09 0.10 0.11 0.12 0.11 0.08 0.10 0.12 0.13 0.16 0.23 0.24 0.23 0.55 0.86 0.49 0.09 0.13 0.31 0.13 0.23 0.20 0.07 0.02 0.11 0.18 0.43 0.32 0.13 0.08 0.15 0.11 0.12 0.04 0.04 0.04 0.07 0.05 0.03 0.03 0.01 0.00 0.00 0.00 0.00 0.00 0.00 0.00 0.00 0.00 0.00 0.00 0.00
0.09 0.09 0.08 0.08 0.09 0.14 0.14 0.12 0.15 0.24 0.49 0.59 0.69 0.70 0.71 0.24 0.04 0.19 0.81 0.71 0.55 0.40 0.20 0.06 0.04 0.07 0.09 0.14 0.41 0.38 0.13 0.06 0.11 0.04 0.03 0.04 0.04 0.06 0.06 0.03 0.01 0.00 0.00 0.00 0.00 0.00 0.00 0.00 0.00 0.00 0.00 0.00 0.00 0.00
0.08 0.06 0.07 0.07 0.08 0.10 0.16 0.15 0.24 0.75 1.27 0.85 0.41 0.13 0.05 0.04 0.13 0.40 0.72 0.42 0.31 0.15 0.02 0.01 0.03 0.10 0.08 0.17 0.25 0.31 0.18 0.08 0.06 0.02 0.03 0.07 0.12 0.10 0.04 0.01 0.01 0.00 0.00 0.00 0.00 0.00 0.00 0.00 0.00 0.00 0.00 0.00 0.00 0.00
0.09 0.08 0.06 0.08 0.09 0.11 0.22 0.33 0.66 0.92 0.62 0.09 0.05 0.11 0.13 0.15 0.29 0.31 0.36 0.15 0.03 0.01 0.00 0.00 0.01 0.07 0.10 0.26 0.48 0.32 0.23 0.19 0.13 0.14 0.12 0.17 0.18 0.06 0.02 0.02 0.01 0.00 0.00 0.00 0.00 0.00 0.00 0.00 0.00 0.01 0.01 0.01 0.01 0.01
0.08 0.10 0.12 0.15 0.11 0.16 0.41 0.56 0.31 0.05 0.02 0.05 0.08 0.07 0.08 0.11 0.25 0.18 0.15 0.04 0.01 0.03 0.00 0.00 0.02 0.04 0.04 0.10 0.46 0.34 0.15 0.14 0.13 0.67 0.45 0.12 0.06 0.02 0.01 0.01 0.00 0.00 0.00 0.00 0.00 0.00 0.00 0.00 0.00 0.01 0.01 0.02 0.02 0.02
0.16 0.21 0.21 0.18 0.19 0.38 0.60 0.35 0.26 0.11 0.06 0.07 0.09 0.11 0.08 0.05 0.10 0.05 0.02 0.01 0.00 0.00 0.00 0.02 0.03 0.03 0.01 0.01 0.04 0.04 0.03 0.08 0.08 0.10 0.14 0.12 0.06 0.03 0.01 0.00 0.00 0.00 0.01 0.00 0.00 0.00 0.00 0.00 0.00 0.01 0.02 0.02 0.01 0.03
0.24 0.22 0.28 0.33 0.45 0.52 0.49 0.46 0.20 0.06 0.01 0.02 0.01 0.00 0.01 0.01 0.01 0.02 0.01 0.01 0.00 0.00 0.01 0.06 0.06 0.06 0.03 0.04 0.04 0.09 0.08 0.10 0.07 0.06 0.06 0.04 0.01 0.00 0.00 0.00 0.00 0.00 0.01 0.02 0.01 0.00 0.00 0.01 0.00 0.01 0.02 0.02 0.02 0.03
0.17 0.38 0.51 0.42 0.40 0.48 0.43 0.17 0.04 0.00 0.00 0.00 0.01 0.03 0.04 0.03 0.03 0.02 0.02 0.02 0.01 0.02 0.02 0.05 0.09 0.13 0.08 0.05 0.10 0.06 0.13 0.13 0.07 0.05 0.03 0.01 0.01 0.01 0.01 0.01 0.00 0.01 0.01 0.01 0.01 0.01 0.01 0.01 0.01 0.02 0.02 0.03 0.04 0.05
0.22 0.56 0.45 0.33 0.32 0.26 0.12 0.02 0.01 0.00 0.00 0.00 0.02 0.04 0.05 0.04 0.04 0.05 0.04 0.04 0.05 0.10 0.11 0.10 0.12 0.09 0.24 0.03 0.03 0.03 0.05 0.06 0.08 0.04 0.02 0.01 0.01 0.01 0.02 0.00 0.01 0.00 0.01 0.01 0.01 0.01 0.01 0.01 0.01 0.01 0.02 0.05 0.05 0.06
0.13 0.14 0.09 0.07 0.06 0.05 0.04 0.00 0.00 0.00 0.01 0.02 0.03 0.04 0.01 0.03 0.03 0.04 0.05 0.05 0.07 0.06 0.04 0.08 0.03 0.00 0.02 0.03 0.04 0.08 0.09 0.07 0.01 0.01 0.00 0.01 0.01 0.00 0.01 0.01 0.01 0.01 0.01 0.01 0.01 0.01 0.01 0.01 0.01 0.03 0.04 0.05 0.05 0.07
0.02 0.01 0.01 0.00 0.00 0.02 0.02 0.00 0.00 0.00 0.03 0.03 0.04 0.04 0.02 0.03 0.04 0.04 0.04 0.05 0.04 0.01 0.01 0.03 0.06 0.03 0.04 0.05 0.07 0.06 0.06 0.07 0.08 0.04 0.02 0.01 0.01 0.01 0.02 0.01 0.01 0.02 0.03 0.04 0.04 0.03 0.04 0.04 0.04 0.05 0.06 0.05 0.06 0.09
0.00 0.00 0.00 0.00 0.00 0.00 0.00 0.00 0.00 0.00 0.01 0.01 0.02 0.02 0.02 0.06 0.04 0.03 0.02 0.02 0.02 0.02 0.03 0.04 0.06 0.06 0.09 0.10 0.10 0.13 0.10 0.08 0.08 0.13 0.07 0.02 0.02 0.01 0.01 0.01 0.01 0.02 0.02 0.02 0.03 0.03 0.04 0.05 0.06 0.06 0.05 0.07 0.07 0.09
0.00 0.00 0.00 0.00 0.00 0.00 0.01 0.01 0.00 0.00 0.01 0.02 0.02 0.01 0.03 0.01 0.01 0.01 0.01 0.00 0.01 0.04 0.06 0.07 0.08 0.08 0.07 0.08 0.07 0.07 0.06 0.04 0.03 0.03 0.04 0.04 0.03 0.02 0.04 0.04 0.02 0.02 0.02 0.02 0.03 0.04 0.04 0.05 0.07 0.07 0.07 0.08 0.09 0.08
0.00 0.00 0.00 0.00 0.00 0.00 0.01 0.00 0.01 0.01 0.01 0.02 0.03 0.02 0.02 0.02 0.02 0.01 0.01 0.01 0.04 0.09 0.09 0.08 0.07 0.08 0.05 0.06 0.07 0.06 0.07 0.04 0.03 0.02 0.02 0.03 0.03 0.03 0.04 0.03 0.02 0.03 0.03 0.03 0.03 0.04 0.05 0.05 0.05 0.05 0.05 0.06 0.05 0.06
0.00 0.00 0.00 0.00 0.00 0.00 0.02 0.04 0.02 0.03 0.02 0.03 0.01 0.02 0.03 0.03 0.03 0.01 0.02 0.05 0.11 0.12 0.10 0.10 0.09 0.06 0.06 0.07 0.05 0.04 0.06 0.03 0.04 0.06 0.04 0.03 0.04 0.04 0.03 0.04 0.03 0.03 0.04 0.06 0.04 0.04 0.05 0.05 0.05 0.04 0.03 0.03 0.02 0.02
0.00 0.00 0.00 0.00 0.00 0.01 0.01 0.00 0.00 0.01 0.01 0.00 0.00 0.01 0.01 0.01 0.00 0.00 0.03 0.07 0.11 0.10 0.07 0.07 0.10 0.09 0.03 0.02 0.02 0.02 0.05 0.03 0.02 0.03 0.04 0.02 0.02 0.04 0.04 0.04 0.04 0.04 0.05 0.05 0.05 0.05 0.05 0.05 0.03 0.02 0.01 0.01 0.00 0.01
0.00 0.00 0.00 0.00 0.00 0.00 0.00 0.00 0.00 0.00 0.00 0.00 0.00 0.01 0.02 0.00 0.00 0.00 0.01 0.05 0.02 0.02 0.03 0.03 0.01 0.00 0.01 0.01 0.02 0.01 0.00 0.02 0.01 0.01 0.03 0.05 0.05 0.03 0.03 0.04 0.05 0.08 0.06 0.04 0.05 0.04 0.05 0.04 0.02 0.02 0.01 0.00 0.00 0.00
0.00 0.00 0.00 0.00 0.00 0.00 0.00 0.00 0.00 0.00 0.00 0.00 0.00 0.01 0.00 0.00 0.00 0.01 0.03 0.04 0.02 0.02 0.01 0.03 0.03 0.01 0.01 0.01 0.01 0.01 0.01 0.01 0.01 0.01 0.03 0.03 0.05 0.06 0.05 0.04 0.03 0.05 0.06 0.05 0.04 0.04 0.04 0.03 0.02 0.02 0.02 0.01 0.01 0.00
0.00 0.00 0.00 0.00 0.00 0.00 0.00 0.00 0.00 0.00 0.00 0.00 0.00 0.00 0.00 0.00 0.01 0.02 0.02 0.02 0.01 0.01 0.01 0.01 0.00 0.01 0.01 0.02 0.02 0.02 0.01 0.00 0.00 0.02 0.02 0.02 0.02 0.02 0.02 0.03 0.04 0.08 0.06 0.04 0.03 0.03 0.02 0.02 0.01 0.01 0.01 0.01 0.00 0.00
0.00 0.00 0.00 0.00 0.00 0.00 0.00 0.00 0.00 0.00 0.00 0.00 0.00 0.00 0.00 0.01 0.03 0.03 0.01 0.01 0.01 0.01 0.00 0.00 0.00 0.00 0.00 0.00 0.00 0.01 0.01 0.02 0.01 0.01 0.02 0.01 0.01 0.02 0.03 0.03 0.02 0.02 0.02 0.02 0.02 0.01 0.01 0.00 0.00 0.00 0.00 0.00 0.00 0.00
0.00 0.00 0.00 0.00 0.00 0.00 0.01 0.00 0.01 0.00 0.00 0.01 0.00 0.01 0.01 0.05 0.04 0.01 0.01 0.02 0.03 0.03 0.02 0.02 0.03 0.01 0.00 0.00 0.00 0.00 0.00 0.01 0.01 0.02 0.02 0.01 0.00 0.01 0.01 0.01 0.02 0.02 0.01 0.01 0.01 0.01 0.00 0.00 0.00 0.00 0.00 0.00 0.00 0.00
0.00 0.00 0.00 0.00 0.01 0.01 0.04 0.01 0.02 0.00 0.00 0.00 0.01 0.02 0.02 0.06 0.09 0.04 0.02 0.02 0.01 0.01 0.01 0.01 0.01 0.01 0.01 0.01 0.00 0.00 0.00 0.00 0.01 0.01 0.01 0.01 0.01 0.01 0.00 0.00 0.01 0.01 0.01 0.00 0.00 0.00 0.01 0.00 0.00 0.00 0.00 0.00 0.00 0.00
0.00 0.00 0.00 0.00 0.02 0.03 0.03 0.01 0.01 0.00 0.00 0.00 0.00 0.00 0.01 0.03 0.03 0.02 0.01 0.02 0.02 0.03 0.02 0.01 0.00 0.00 0.00 0.00 0.01 0.01 0.00 0.00 0.00 0.00 0.01 0.01 0.00 0.00 0.00 0.00 0.00 0.01 0.00 0.00 0.00 0.00 0.00 0.01 0.00 0.00 0.00 0.00 0.00 0.00
0.00 0.00 0.00 0.00 0.03 0.02 0.04 0.02 0.00 0.00 0.00 0.00 0.00 0.00 0.01 0.01 0.01 0.02 0.01 0.03 0.04 0.01 0.00 0.00 0.00 0.00 0.00 0.00 0.00 0.00 0.00 0.00 0.00 0.00 0.00 0.00 0.00 0.00 0.00 0.00 0.00 0.00 0.00 0.00 0.00 0.00 0.00 0.00 0.00 0.01 0.00 0.00 0.00 0.00
0.00 0.00 0.00 0.00 0.01 0.01 0.01 0.00 0.00 0.00 0.00 0.00 0.01 0.01 0.02 0.01 0.01 0.02 0.02 0.02 0.02 0.01 0.01 0.00 0.00 0.00 0.00 0.00 0.00 0.00 0.00 0.00 0.00 0.00 0.00 0.00 0.00 0.00 0.00 0.00 0.00 0.00 0.00 0.00 0.00 0.00 0.00 0.00 0.00 0.00 0.00 0.00 0.00 0.00

GFSWCAN_prec_precacc12_108.txt.gz
Total_Precipitation_Accumulation
0.09 0.07 0.07 0.06 0.06 0.04 0.01 0.01 0.02 0.04 0.03 0.01 0.01 0.03 0.04 0.08 0.14 0.12 0.02 0.02 0.07 0.08 0.01 0.00 0.00 0.00 0.00 0.01 0.02 0.02 0.02 0.08 0.12 0.12 0.17 0.13 0.02 0.06 0.16 0.30 0.22 0.12 0.04 0.01 0.01 0.01 0.00 0.00 0.00 0.01 0.01 0.03 0.02 0.00
0.11 0.09 0.07 0.07 0.06 0.05 0.02 0.01 0.01 0.01 0.03 0.03 0.03 0.03 0.03 0.04 0.10 0.18 0.06 0.01 0.04 0.09 0.02 0.00 0.00 0.00 0.00 0.00 0.00 0.02 0.04 0.10 0.16 0.17 0.15 0.08 0.08 0.15 0.15 0.25 0.61 0.25 0.08 0.04 0.00 0.00 0.00 0.00 0.02 0.04 0.01 0.01 0.02 0.00
0.08 0.06 0.06 0.07 0.06 0.05 0.03 0.02 0.01 0.01 0.02 0.02 0.04 0.04 0.04 0.03 0.07 0.14 0.05 0.04 0.17 0.23 0.06 0.00 0.00 0.00 0.00 0.00 0.00 0.04 0.06 0.28 0.52 0.37 0.25 0.18 0.23 0.20 0.21 0.29 0.62 0.53 0.30 0.18 0.03 0.01 0.00 0.02 0.03 0.05 0.04 0.01 0.02 0.00
0.07 0.08 0.04 0.04 0.06 0.05 0.03 0.02 0.01 0.01 0.01 0.02 0.03 0.03 0.03 0.05 0.10 0.19 0.12 0.06 0.11 0.22 0.09 0.00 0.00 0.00 0.00 0.00 0.00 0.01 0.01 0.05 0.12 0.16 0.12 0.10 0.04 0.06 0.14 0.15 0.26 0.64 0.64 0.24 0.12 0.15 0.07 0.04 0.03 0.04 0.03 0.03 0.01 0.00
0.09 0.05 0.04 0.03 0.03 0.04 0.05 0.04 0.03 0.03 0.02 0.02 0.04 0.03 0.05 0.07 0.08 0.21 0.24 0.16 0.07 0.11 0.07 0.02 0.00 0.01 0.02 0.00 0.00 0.00 0.00 0.01 0.01 0.04 0.03 0.01 0.01 0.03 0.03 0.08 0.41 0.44 0.78 0.59 0.52 0.27 0.22 0.10 0.08 0.04 0.03 0.01 0.02 0.00
0.09 0.05 0.02 0.03 0.03 0.03 0.03 0.07 0.04 0.04 0.04 0.03 0.02 0.05 0.07 0.11 0.24 0.37 0.55 0.28 0.13 0.09 0.32 0.08 0.03 0.02 0.04 0.01 0.01 0.00 0.00 0.00 0.04 0.05 0.02 0.01 0.02 0.08 0.09 0.05 0.15 0.18 0.51 0.65 0.86 0.57 0.47 0.17 0.15 0.02 0.02 0.02 0.01 0.00
0.06 0.04 0.03 0.04 0.05 0.06 0.06 0.05 0.07 0.04 0.06 0.07 0.04 0.06 0.10 0.17 0.32 0.32 0.19 0.08 0.04 0.32 0.78 0.22 0.01 0.01 0.00 0.00 0.00 0.02 0.01 0.02 0.03 0.03 0.02 0.00 0.01 0.03 0.04 0.01 0.01 0.15 0.18 0.38 0.88 0.96 1.11 0.72 0.58 0.34 0.14 0.03 0.00 0.00
0.08 0.08 0.07 0.06 0.06 0.07 0.08 0.08 0.07 0.06 0.08 0.12 0.08 0.08 0.13 0.24 0.42 0.22 0.11 0.26 0.38 0.60 0.49 0.19 0.03 0.04 0.10 0.07 0.04 0.04 0.05 0.08 0.05 0.02 0.01 0.01 0.00 0.01 0.01 0.00 0.01 0.03 0.02 0.13 0.16 0.14 0.39 0.39 0.20 0.09 0.02 0.00 0.00 0.00
0.11 0.09 0.09 0.09 0.10 0.11 0.09 0.10 0.11 0.13 0.16 0.22 0.23 0.22 0.52 0.81 0.49 0.07 0.10 0.32 0.31 0.44 0.24 0.05 0.01 0.02 0.07 0.30 0.24 0.10 0.06 0.10 0.07 0.06 0.02 0.02 0.02 0.04 0.04 0.02 0.01 0.01 0.01 0.01 0.00 0.01 0.02 0.01 0.00 0.00 0.00 0.00 0.00 0.00
0.10 0.09 0.08 0.08 0.10 0.14 0.14 0.12 0.14 0.22 0.42 0.53 0.82 0.80 0.73 0.21 0.03 0.11 0.57 0.62 0.60 0.55 0.22 0.06 0.01 0.01 0.03 0.08 0.36 0.34 0.16 0.03 0.09 0.04 0.02 0.04 0.04 0.07 0.05 0.03 0.02 0.01 0.00 0.00 0.00 0.00 0.00 0.00 0.00 0.00 0.00 0.00 0.00 0.00
0.08 0.05 0.06 0.07 0.08 0.10 0.16 0.15 0.23 0.57 1.07 0.99 0.62 0.21 0.04 0.04 0.06 0.29 0.66 0.39 0.26 0.14 0.03 0.01 0.01 0.02 0.04 0.13 0.23 0.33 0.26 0.05 0.03 0.01 0.01 0.05 0.12 0.11 0.05 0.02 0.01 0.00 0.00 0.00 0.00 0.00 0.00 0.00 0.00 0.00 0.00 0.00 0.00 0.00
0.07 0.06 0.05 0.08 0.10 0.11 0.21 0.29 0.60 1.03 0.74 0.18 0.07 0.12 0.12 0.08 0.21 0.28 0.39 0.19 0.02 0.00 0.00 0.00 0.00 0.01 0.06 0.18 0.47 0.38 0.24 0.16 0.10 0.12 0.10 0.16 0.15 0.07 0.02 0.02 0.01 0.00 0.00 0.00 0.00 0.00 0.00 0.00 0.00 0.01 0.01 0.01 0.01 0.01
0.04 0.05 0.06 0.08 0.10 0.15 0.36 0.56 0.53 0.19 0.05 0.08 0.16 0.14 0.06 0.08 0.25 0.14 0.13 0.05 0.00 0.01 0.00 0.00 0.01 0.01 0.04 0.09 0.48 0.51 0.28 0.16 0.15 0.66 0.44 0.11 0.07 0.03 0.02 0.01 0.00 0.00 0.00 0.00 0.00 0.00 0.00 0.00 0.00 0.01 0.01 0.01 0.01 0.01
0.12 0.14 0.11 0.10 0.15 0.32 0.54 0.43 0.36 0.25 0.16 0.14 0.12 0.11 0.06 0.03 0.08 0.02 0.01 0.00 0.00 0.00 0.00 0.02 0.02 0.02 0.01 0.03 0.05 0.06 0.07 0.10 0.18 0.08 0.11 0.11 0.07 0.04 0.02 0.00 0.00 0.00 0.01 0.00 0.00 0.00 0.00 0.00 0.00 0.01 0.01 0.01 0.01 0.01
0.17 0.19 0.21 0.25 0.39 0.49 0.53 0.58 0.34 0.21 0.11 0.06 0.01 0.00 0.01 0.01 0.01 0.01 0.01 0.00 0.00 0.00 0.01 0.06 0.05 0.03 0.03 0.02 0.01 0.01 0.02 0.05 0.04 0.03 0.04 0.04 0.01 0.01 0.01 0.00 0.00 0.00 0.00 0.01 0.00 0.00 0.00 0.00 0.00 0.01 0.01 0.01 0.01 0.02
0.15 0.47 0.56 0.42 0.45 0.57 0.61 0.38 0.11 0.02 0.00 0.00 0.01 0.02 0.04 0.01 0.02 0.02 0.02 0.02 0.01 0.01 0.04 0.12 0.11 0.06 0.06 0.02 0.06 0.04 0.09 0.07 0.04 0.03 0.03 0.01 0.00 0.01 0.00 0.00 0.00 0.00 0.00 0.00 0.00 0.00 0.00 0.00 0.01 0.01 0.01 0.01 0.02 0.02
0.35 0.71 0.50 0.42 0.49 0.48 0.23 0.03 0.01 0.00 0.00 0.00 0.02 0.03 0.03 0.02 0.03 0.04 0.04 0.04 0.04 0.08 0.12 0.05 0.12 0.08 0.23 0.03 0.02 0.02 0.03 0.05 0.07 0.03 0.01 0.00 0.00 0.01 0.01 0.00 0.00 0.00 0.00 0.00 0.00 0.00 0.01 0.00 0.00 0.00 0.01 0.03 0.02 0.03
0.17 0.18 0.18 0.19 0.21 0.11 0.05 0.01 0.00 0.00 0.01 0.01 0.02 0.02 0.00 0.03 0.03 0.03 0.04 0.05 0.06 0.07 0.05 0.03 0.02 0.00 0.01 0.01 0.03 0.07 0.09 0.06 0.01 0.00 0.00 0.00 0.00 0.00 0.00 0.00 0.00 0.01 0.00 0.01 0.00 0.00 0.00 0.00 0.00 0.01 0.02 0.02 0.02 0.03
0.04 0.03 0.03 0.01 0.01 0.02 0.04 0.00 0.00 0.00 0.02 0.02 0.03 0.03 0.01 0.02 0.04 0.03 0.03 0.05 0.04 0.02 0.03 0.04 0.06 0.03 0.02 0.04 0.06 0.06 0.05 0.04 0.06 0.03 0.01 0.00 0.00 0.00 0.00 0.00 0.00 0.01 0.02 0.03 0.02 0.01 0.02 0.02 0.02 0.02 0.02 0.02 0.03 0.05
0.04 0.03 0.01 0.01 0.01 0.00 0.00 0.00 0.00 0.00 0.01 0.01 0.01 0.01 0.01 0.04 0.03 0.01 0.01 0.01 0.02 0.01 0.03 0.03 0.05 0.05 0.07 0.08 0.08 0.09 0.07 0.06 0.06 0.09 0.04 0.02 0.01 0.00 0.00 0.00 0.00 0.01 0.01 0.01 0.01 0.01 0.01 0.02 0.03 0.03 0.03 0.03 0.04 0.06
0.01 0.00 0.00 0.00 0.00 0.00 0.00 0.00 0.00 0.00 0.01 0.01 0.01 0.01 0.02 0.00 0.00 0.00 0.00 0.00 0.00 0.03 0.05 0.06 0.07 0.07 0.06 0.07 0.06 0.05 0.05 0.04 0.04 0.03 0.04 0.03 0.02 0.02 0.03 0.03 0.01 0.01 0.01 0.01 0.01 0.01 0.01 0.02 0.03 0.03 0.03 0.04 0.05 0.05
0.00 0.00 0.00 0.00 0.00 0.00 0.00 0.00 0.00 0.00 0.00 0.02 0.03 0.01 0.01 0.01 0.01 0.00 0.00 0.00 0.03 0.07 0.07 0.06 0.07 0.06 0.04 0.06 0.07 0.07 0.08 0.03 0.03 0.02 0.02 0.03 0.02 0.02 0.03 0.02 0.01 0.01 0.02 0.02 0.01 0.02 0.03 0.03 0.02 0.02 0.03 0.04 0.04 0.05
0.00 0.00 0.00 0.00 0.00 0.00 0.02 0.05 0.02 0.02 0.01 0.02 0.00 0.01 0.02 0.02 0.03 0.01 0.01 0.04 0.09 0.12 0.09 0.09 0.08 0.06 0.06 0.08 0.05 0.05 0.06 0.03 0.04 0.05 0.03 0.03 0.03 0.03 0.03 0.03 0.02 0.02 0.03 0.04 0.03 0.03 0.04 0.04 0.04 0.03 0.03 0.03 0.02 0.03
0.00 0.00 0.00 0.00 0.00 0.01 0.02 0.00 0.00 0.01 0.01 0.00 0.00 0.01 0.01 0.00 0.00 0.00 0.02 0.05 0.10 0.11 0.08 0.07 0.09 0.07 0.03 0.02 0.02 0.02 0.04 0.03 0.02 0.02 0.03 0.01 0.01 0.03 0.03 0.04 0.03 0.03 0.03 0.04 0.03 0.03 0.03 0.03 0.03 0.02 0.01 0.01 0.01 0.01
0.00 0.00 0.00 0.00 0.00 0.00 0.00 0.00 0.00 0.00 0.00 0.00 0.00 0.01 0.02 0.00 0.00 0.00 0.01 0.04 0.02 0.01 0.02 0.02 0.00 0.00 0.01 0.01 0.01 0.01 0.00 0.01 0.00 0.01 0.02 0.03 0.03 0.02 0.02 0.03 0.04 0.06 0.05 0.03 0.03 0.03 0.04 0.03 0.02 0.02 0.01 0.00 0.00 0.00
0.00 0.00 0.00 0.00 0.00 0.00 0.00 0.00 0.00 0.00 0.00 0.00 0.00 0.01 0.00 0.00 0.00 0.01 0.02 0.03 0.01 0.01 0.00 0.02 0.02 0.00 0.00 0.00 0.00 0.01 0.01 0.01 0.00 0.00 0.03 0.03 0.03 0.03 0.02 0.02 0.02 0.03 0.04 0.03 0.03 0.03 0.03 0.03 0.03 0.02 0.02 0.02 0.01 0.00
0.00 0.00 0.00 0.00 0.00 0.00 0.00 0.00 0.00 0.00 0.00 0.00 0.00 0.00 0.00 0.00 0.01 0.02 0.02 0.01 0.01 0.01 0.00 0.00 0.00 0.00 0.01 0.02 0.02 0.02 0.01 0.00 0.00 0.01 0.02 0.02 0.02 0.02 0.01 0.02 0.03 0.06 0.05 0.03 0.02 0.02 0.02 0.02 0.02 0.02 0.01 0.01 0.01 0.00
0.00 0.00 0.00 0.00 0.00 0.00 0.00 0.00 0.00 0.00 0.00 0.00 0.00 0.00 0.00 0.00 0.02 0.03 0.00 0.00 0.00 0.00 0.00 0.00 0.00 0.00 0.00 0.00 0.00 0.00 0.01 0.01 0.01 0.00 0.01 0.00 0.01 0.01 0.02 0.02 0.02 0.02 0.02 0.02 0.02 0.01 0.01 0.01 0.00 0.00 0.00 0.00 0.00 0.00
0.00 0.00 0.00 0.00 0.00 0.00 0.00 0.00 0.00 0.01 0.01 0.01 0.00 0.01 0.02 0.04 0.03 0.01 0.01 0.01 0.02 0.02 0.01 0.01 0.03 0.01 0.00 0.00 0.00 0.00 0.00 0.01 0.01 0.01 0.01 0.00 0.00 0.00 0.00 0.01 0.01 0.01 0.00 0.00 0.01 0.01 0.00 0.00 0.00 0.00 0.00 0.00 0.00 0.00
0.00 0.00 0.00 0.00 0.00 0.01 0.03 0.01 0.01 0.00 0.00 0.00 0.01 0.02 0.02 0.06 0.09 0.03 0.01 0.01 0.00 0.00 0.00 0.00 0.00 0.00 0.01 0.01 0.00 0.00 0.00 0.00 0.01 0.01 0.01 0.00 0.01 0.01 0.00 0.00 0.00 0.00 0.00 0.00 0.00 0.00 0.01 0.00 0.00 0.00 0.00 0.00 0.00 0.00
0.00 0.00 0.00 0.00 0.02 0.03 0.02 0.01 0.01 0.00 0.00 0.00 0.00 0.00 0.01 0.03 0.03 0.02 0.01 0.01 0.01 0.02 0.01 0.00 0.00 0.00 0.00 0.00 0.01 0.00 0.00 0.00 0.00 0.00 0.01 0.01 0.00 0.00 0.00 0.00 0.00 0.00 0.00 0.00 0.00 0.00 0.00 0.00 0.00 0.00 0.00 0.00 0.00 0.00
0.00 0.00 0.00 0.00 0.02 0.02 0.03 0.01 0.00 0.00 0.00 0.00 0.00 0.00 0.01 0.00 0.01 0.01 0.01 0.02 0.02 0.00 0.00 0.00 0.00 0.00 0.00 0.00 0.00 0.00 0.00 0.00 0.00 0.00 0.00 0.00 0.00 0.00 0.00 0.00 0.00 0.00 0.00 0.00 0.00 0.00 0.00 0.00 0.00 0.01 0.00 0.00 0.00 0.00
0.00 0.00 0.00 0.00 0.01 0.01 0.01 0.00 0.00 0.00 0.00 0.00 0.01 0.01 0.01 0.00 0.01 0.01 0.01 0.02 0.01 0.00 0.00 0.00 0.00 0.00 0.00 0.00 0.00 0.00 0.00 0.00 0.00 0.00 0.00 0.00 0.00 0.00 0.00 0.00 0.00 0.00 0.00 0.00 0.00 0.00 0.00 0.00 0.00 0.00 0.00 0.00 0.00 0.00

GFSWCAN_prec_precacc12_114.txt.gz
Total_Precipitation_Accumulation
0.09 0.09 0.10 0.10 0.16 0.16 0.09 0.07 0.03 0.03 0.03 0.01 0.01 0.03 0.05 0.08 0.15 0.03 0.00 0.00 0.05 0.06 0.00 0.00 0.00 0.00 0.00 0.00 0.00 0.00 0.00 0.00 0.00 0.04 0.15 0.14 0.05 0.02 0.04 0.03 0.11 0.14 0.06 0.02 0.00 0.00 0.00 0.00 0.00 0.01 0.03 0.10 0.12 0.09
0.10 0.12 0.11 0.11 0.12 0.17 0.20 0.12 0.06 0.03 0.04 0.05 0.04 0.03 0.04 0.08 0.14 0.07 0.02 0.00 0.02 0.08 0.00 0.00 0.00 0.00 0.00 0.00 0.00 0.00 0.00 0.00 0.01 0.06 0.08 0.02 0.02 0.10 0.07 0.14 0.19 0.25 0.22 0.17 0.01 0.00 0.00 0.00 0.01 0.02 0.01 0.16 0.16 0.04
0.08 0.09 0.13 0.12 0.11 0.11 0.17 0.16 0.07 0.03 0.03 0.03 0.05 0.05 0.04 0.06 0.11 0.08 0.01 0.02 0.12 0.19 0.04 0.00 0.00 0.00 0.00 0.00 0.00 0.00 0.00 0.00 0.02 0.04 0.05 0.03 0.16 0.16 0.12 0.07 0.20 0.34 0.29 0.32 0.08 0.03 0.03 0.02 0.02 0.03 0.05 0.03 0.15 0.02
0.07 0.11 0.10 0.15 0.13 0.11 0.09 0.19 0.12 0.04 0.02 0.02 0.04 0.04 0.03 0.06 0.10 0.11 0.03 0.02 0.06 0.21 0.12 0.00 0.00 0.00 0.00 0.00 0.00 0.00 0.00 0.00 0.01 0.01 0.02 0.04 0.03 0.03 0.02 0.07 0.28 0.68 0.68 0.56 0.30 0.11 0.16 0.04 0.04 0.05 0.04 0.07 0.04 0.00
0.09 0.07 0.11 0.14 0.16 0.15 0.10 0.09 0.21 0.06 0.02 0.01 0.02 0.03 0.04 0.05 0.10 0.10 0.05 0.02 0.01 0.07 0.05 0.00 0.00 0.01 0.02 0.00 0.00 0.00 0.00 0.00 0.01 0.02 0.03 0.02 0.01 0.02 0.02 0.10 0.45 0.57 0.89 0.71 0.64 0.21 0.31 0.12 0.05 0.09 0.07 0.09 0.19 0.07
0.13 0.10 0.06 0.13 0.16 0.16 0.12 0.10 0.15 0.11 0.02 0.01 0.01 0.03 0.06 0.09 0.16 0.15 0.14 0.01 0.01 0.03 0.17 0.04 0.00 0.00 0.03 0.01 0.00 0.00 0.00 0.00 0.01 0.04 0.02 0.02 0.02 0.08 0.10 0.04 0.07 0.19 0.68 0.91 1.00 0.59 0.40 0.31 0.24 0.07 0.18 0.28 0.31 0.27
0.14 0.11 0.12 0.07 0.14 0.17 0.12 0.07 0.11 0.09 0.03 0.02 0.01 0.03 0.10 0.16 0.14 0.09 0.06 0.07 0.02 0.10 0.31 0.09 0.00 0.00 0.00 0.00 0.00 0.00 0.00 0.01 0.01 0.03 0.02 0.01 0.02 0.04 0.02 0.00 0.00 0.12 0.26 0.54 1.05 1.26 1.21 0.92 1.05 0.76 0.35 0.25 0.24 0.05
0.14 0.12 0.16 0.05 0.12 0.14 0.07 0.06 0.08 0.11 0.04 0.02 0.03 0.06 0.15 0.21 0.20 0.08 0.04 0.47 0.61 0.35 0.28 0.14 0.00 0.00 0.05 0.05 0.01 0.00 0.00 0.03 0.05 0.05 0.03 0.01 0.01 0.02 0.02 0.00 0.00 0.02 0.04 0.11 0.14 0.19 0.56 0.62 0.47 0.43 0.20 0.06 0.01 0.01
0.14 0.10 0.18 0.06 0.11 0.12 0.04 0.07 0.09 0.14 0.08 0.07 0.13 0.19 0.41 0.51 0.34 0.05 0.05 0.31 0.48 0.60 0.31 0.05 0.01 0.00 0.01 0.03 0.04 0.05 0.03 0.06 0.04 0.08 0.02 0.03 0.02 0.04 0.04 0.01 0.01 0.01 0.01 0.01 0.00 0.01 0.02 0.02 0.02 0.04 0.07 0.04 0.01 0.00
0.14 0.11 0.18 0.06 0.10 0.08 0.06 0.09 0.17 0.18 0.20 0.31 0.70 0.71 0.49 0.11 0.03 0.08 0.27 0.45 0.54 0.45 0.23 0.07 0.00 0.00 0.00 0.01 0.07 0.26 0.23 0.08 0.08 0.04 0.03 0.06 0.06 0.06 0.03 0.03 0.02 0.01 0.00 0.00 0.00 0.00 0.00 0.00 0.00 0.00 0.00 0.02 0.01 0.01
0.15 0.16 0.13 0.06 0.08 0.08 0.08 0.12 0.23 0.34 0.65 0.88 0.58 0.19 0.04 0.06 0.16 0.25 0.45 0.29 0.17 0.13 0.05 0.01 0.00 0.00 0.00 0.01 0.12 0.28 0.36 0.17 0.04 0.01 0.02 0.05 0.11 0.08 0.05 0.03 0.02 0.01 0.00 0.00 0.00 0.00 0.00 0.00 0.00 0.00 0.00 0.00 0.00 0.01
0.15 0.18 0.09 0.07 0.09 0.10 0.10 0.16 0.37 0.72 0.57 0.20 0.10 0.19 0.44 0.25 0.26 0.25 0.32 0.19 0.02 0.00 0.00 0.00 0.00 0.00 0.00 0.03 0.25 0.34 0.21 0.12 0.04 0.05 0.06 0.06 0.06 0.04 0.02 0.02 0.01 0.00 0.00 0.00 0.00 0.00 0.00 0.00 0.00 0.01 0.01 0.01 0.01 0.01
0.10 0.09 0.06 0.08 0.10 0.11 0.15 0.26 0.42 0.19 0.06 0.23 0.44 0.44 0.31 0.12 0.25 0.07 0.08 0.06 0.00 0.00 0.00 0.00 0.00 0.00 0.01 0.04 0.21 0.59 0.49 0.18 0.17 0.31 0.13 0.06 0.05 0.03 0.03 0.01 0.01 0.00 0.00 0.00 0.00 0.00 0.00 0.00 0.00 0.00 0.00 0.01 0.01 0.01
0.03 0.04 0.06 0.07 0.11 0.16 0.24 0.28 0.27 0.24 0.27 0.45 0.39 0.22 0.06 0.02 0.02 0.00 0.00 0.00 0.00 0.00 0.00 0.01 0.01 0.02 0.02 0.05 0.08 0.15 0.30 0.41 0.38 0.09 0.06 0.09 0.06 0.04 0.03 0.03 0.01 0.00 0.00 0.00 0.00 0.00 0.00 0.00 0.00 0.00 0.01 0.01 0.00 0.01
0.03 0.04 0.09 0.10 0.17 0.20 0.21 0.31 0.38 0.36 0.45 0.40 0.09 0.00 0.01 0.00 0.01 0.01 0.01 0.00 0.00 0.00 0.01 0.05 0.06 0.05 0.10 0.07 0.08 0.02 0.02 0.03 0.04 0.05 0.08 0.06 0.03 0.01 0.00 0.00 0.00 0.00 0.00 0.00 0.00 0.00 0.00 0.00 0.00 0.00 0.01 0.01 0.01 0.01
0.06 0.23 0.21 0.17 0.21 0.33 0.57 0.62 0.48 0.27 0.18 0.09 0.01 0.01 0.02 0.01 0.01 0.01 0.02 0.01 0.01 0.01 0.05 0.16 0.16 0.04 0.08 0.04 0.01 0.01 0.01 0.01 0.03 0.03 0.02 0.01 0.00 0.01 0.00 0.00 0.00 0.00 0.00 0.00 0.00 0.00 0.00 0.00 0.00 0.00 0.00 0.00 0.01 0.01
0.35 0.39 0.15 0.27 0.49 0.67 0.51 0.28 0.18 0.15 0.04 0.01 0.01 0.02 0.01 0.01 0.02 0.02 0.02 0.03 0.03 0.06 0.10 0.10 0.26 0.20 0.13 0.03 0.01 0.01 0.02 0.02 0.02 0.02 0.01 0.00 0.00 0.01 0.01 0.00 0.00 0.00 0.00 0.00 0.00 0.00 0.00 0.00 0.00 0.00 0.00 0.01 0.01 0.01
0.23 0.12 0.21 0.36 0.47 0.33 0.18 0.09 0.07 0.06 0.03 0.01 0.01 0.02 0.00 0.02 0.02 0.01 0.02 0.04 0.07 0.07 0.05 0.03 0.01 0.02 0.02 0.01 0.01 0.02 0.05 0.05 0.01 0.00 0.00 0.00 0.00 0.00 0.00 0.00 0.00 0.01 0.01 0.00 0.00 0.00 0.00 0.00 0.00 0.00 0.00 0.01 0.00 0.01
0.10 0.08 0.07 0.08 0.04 0.04 0.13 0.04 0.00 0.01 0.02 0.01 0.02 0.01 0.00 0.01 0.03 0.02 0.03 0.05 0.06 0.05 0.04 0.03 0.07 0.02 0.01 0.01 0.02 0.03 0.03 0.02 0.01 0.01 0.02 0.01 0.00 0.00 0.00 0.00 0.00 0.00 0.01 0.01 0.01 0.00 0.00 0.00 0.00 0.00 0.00 0.00 0.00 0.01
0.14 0.10 0.04 0.04 0.02 0.01 0.01 0.00 0.00 0.00 0.00 0.00 0.00 0.00 0.00 0.01 0.01 0.00 0.01 0.02 0.03 0.03 0.04 0.03 0.04 0.03 0.03 0.05 0.05 0.04 0.04 0.05 0.04 0.04 0.03 0.02 0.02 0.00 0.00 0.00 0.00 0.00 0.00 0.00 0.00 0.00 0.00 0.01 0.01 0.00 0.00 0.00 0.01 0.01
0.15 0.09 0.06 0.04 0.02 0.01 0.00 0.00 0.00 0.00 0.00 0.00 0.00 0.00 0.00 0.00 0.00 0.00 0.00 0.00 0.00 0.02 0.03 0.03 0.04 0.06 0.06 0.06 0.06 0.04 0.04 0.03 0.03 0.03 0.03 0.03 0.03 0.02 0.01 0.01 0.00 0.00 0.00 0.00 0.01 0.01 0.01 0.01 0.01 0.01 0.01 0.01 0.01 0.02
0.04 0.04 0.04 0.01 0.00 0.00 0.00 0.00 0.00 0.00 0.00 0.01 0.01 0.00 0.00 0.00 0.00 0.00 0.00 0.00 0.01 0.04 0.03 0.03 0.04 0.04 0.03 0.04 0.05 0.05 0.05 0.03 0.03 0.03 0.03 0.03 0.02 0.02 0.02 0.01 0.01 0.01 0.01 0.01 0.01 0.01 0.02 0.02 0.01 0.01 0.01 0.02 0.02 0.02
0.00 0.00 0.00 0.00 0.00 0.00 0.00 0.04 0.00 0.00 0.00 0.02 0.00 0.00 0.00 0.00 0.00 0.00 0.00 0.01 0.04 0.07 0.05 0.05 0.06 0.06 0.06 0.08 0.06 0.04 0.04 0.02 0.02 0.02 0.02 0.02 0.02 0.02 0.02 0.02 0.01 0.01 0.02 0.02 0.02 0.02 0.02 0.02 0.02 0.02 0.02 0.02 0.02 0.02
0.00 0.00 0.00 0.00 0.00 0.02 0.03 0.01 0.00 0.00 0.00 0.00 0.00 0.01 0.00 0.00 0.00 0.00 0.00 0.01 0.05 0.08 0.06 0.05 0.03 0.02 0.02 0.01 0.01 0.01 0.01 0.00 0.00 0.00 0.01 0.00 0.00 0.01 0.01 0.02 0.02 0.02 0.02 0.02 0.02 0.02 0.02 0.02 0.02 0.02 0.02 0.01 0.02 0.02
0.00 0.00 0.00 0.00 0.00 0.00 0.00 0.00 0.00 0.00 0.00 0.00 0.00 0.01 0.01 0.00 0.00 0.00 0.00 0.01 0.01 0.01 0.01 0.00 0.00 0.00 0.00 0.00 0.01 0.01 0.00 0.00 0.00 0.00 0.01 0.01 0.01 0.01 0.01 0.01 0.02 0.03 0.03 0.02 0.02 0.02 0.02 0.02 0.02 0.02 0.02 0.01 0.00 0.00
0.00 0.00 0.00 0.00 0.00 0.00 0.00 0.00 0.00 0.00 0.00 0.00 0.00 0.01 0.00 0.00 0.00 0.00 0.00 0.00 0.01 0.00 0.00 0.00 0.00 0.00 0.00 0.00 0.00 0.00 0.00 0.00 0.00 0.00 0.01 0.02 0.01 0.00 0.00 0.00 0.01 0.01 0.02 0.02 0.02 0.02 0.02 0.02 0.02 0.02 0.02 0.02 0.02 0.01
0.00 0.00 0.00 0.00 0.00 0.00 0.00 0.00 0.00 0.00 0.00 0.00 0.00 0.00 0.00 0.00 0.00 0.00 0.01 0.00 0.00 0.00 0.00 0.00 0.00 0.00 0.00 0.01 0.01 0.01 0.00 0.00 0.00 0.00 0.01 0.01 0.01 0.01 0.00 0.01 0.01 0.02 0.02 0.02 0.01 0.01 0.01 0.02 0.02 0.03 0.03 0.02 0.02 0.01
0.00 0.00 0.00 0.00 0.00 0.00 0.00 0.00 0.00 0.00 0.00 0.00 0.00 0.00 0.00 0.00 0.00 0.01 0.00 0.00 0.00 0.00 0.00 0.00 0.00 0.00 0.00 0.00 0.00 0.00 0.00 0.00 0.00 0.00 0.00 0.00 0.00 0.00 0.01 0.01 0.01 0.01 0.01 0.01 0.01 0.01 0.01 0.01 0.01 0.01 0.01 0.01 0.01 0.01
0.00 0.00 0.00 0.00 0.00 0.00 0.00 0.00 0.00 0.01 0.01 0.00 0.00 0.00 0.01 0.02 0.02 0.01 0.01 0.00 0.00 0.00 0.00 0.00 0.00 0.00 0.00 0.00 0.00 0.00 0.01 0.01 0.00 0.00 0.00 0.00 0.00 0.00 0.00 0.00 0.00 0.00 0.00 0.00 0.01 0.01 0.00 0.00 0.00 0.00 0.00 0.00 0.00 0.00
0.00 0.00 0.00 0.00 0.00 0.01 0.02 0.01 0.01 0.01 0.00 0.00 0.00 0.01 0.01 0.03 0.05 0.02 0.01 0.00 0.00 0.00 0.00 0.00 0.00 0.00 0.00 0.00 0.00 0.00 0.01 0.01 0.01 0.00 0.00 0.00 0.00 0.00 0.00 0.00 0.00 0.00 0.00 0.00 0.00 0.01 0.01 0.01 0.00 0.00 0.00 0.00 0.00 0.00
0.00 0.00 0.00 0.00 0.01 0.02 0.02 0.00 0.00 0.00 0.00 0.00 0.00 0.00 0.01 0.03 0.04 0.03 0.01 0.00 0.00 0.00 0.00 0.00 0.00 0.00 0.00 0.00 0.00 0.00 0.00 0.00 0.00 0.00 0.00 0.00 0.00 0.00 0.00 0.00 0.00 0.00 0.00 0.00 0.00 0.00 0.00 0.00 0.00 0.00 0.00 0.00 0.00 0.00
0.00 0.00 0.00 0.00 0.01 0.01 0.01 0.00 0.00 0.00 0.00 0.00 0.00 0.00 0.00 0.00 0.00 0.01 0.01 0.01 0.00 0.00 0.00 0.00 0.00 0.00 0.00 0.00 0.00 0.00 0.00 0.00 0.00 0.00 0.00 0.00 0.00 0.00 0.00 0.00 0.00 0.00 0.00 0.00 0.00 0.00 0.00 0.00 0.00 0.00 0.00 0.00 0.00 0.00
0.00 0.00 0.00 0.00 0.00 0.01 0.01 0.00 0.00 0.00 0.00 0.00 0.00 0.00 0.00 0.00 0.00 0.00 0.01 0.01 0.00 0.00 0.00 0.00 0.00 0.00 0.00 0.00 0.00 0.00 0.00 0.00 0.00 0.00 0.00 0.00 0.00 0.00 0.00 0.00 0.00 0.00 0.00 0.00 0.00 0.00 0.00 0.00 0.00 0.00 0.00 0.00 0.00 0.00

GFSWCAN_prec_precacc12_117.txt.gz
Total_Precipitation_Accumulation
0.08 0.08 0.07 0.10 0.20 0.21 0.14 0.10 0.05 0.05 0.05 0.01 0.00 0.02 0.04 0.08 0.13 0.04 0.04 0.01 0.06 0.06 0.00 0.00 0.00 0.00 0.00 0.00 0.00 0.00 0.00 0.01 0.01 0.03 0.10 0.14 0.08 0.04 0.07 0.03 0.04 0.13 0.11 0.07 0.02 0.01 0.03 0.00 0.00 0.03 0.06 0.12 0.50 0.55
0.08 0.09 0.09 0.08 0.09 0.18 0.23 0.20 0.14 0.06 0.04 0.03 0.02 0.02 0.03 0.08 0.12 0.05 0.05 0.01 0.05 0.10 0.01 0.00 0.00 0.00 0.00 0.00 0.00 0.01 0.00 0.00 0.01 0.03 0.06 0.04 0.03 0.08 0.07 0.13 0.05 0.14 0.26 0.22 0.04 0.02 0.02 0.01 0.02 0.02 0.01 0.19 0.47 0.18
0.08 0.09 0.11 0.09 0.08 0.10 0.18 0.27 0.26 0.17 0.05 0.03 0.03 0.03 0.03 0.07 0.11 0.06 0.05 0.03 0.12 0.15 0.03 0.00 0.00 0.00 0.00 0.00 0.00 0.00 0.01 0.01 0.03 0.04 0.07 0.03 0.02 0.02 0.07 0.09 0.13 0.14 0.26 0.34 0.10 0.08 0.06 0.02 0.02 0.02 0.04 0.07 0.53 0.14
0.07 0.11 0.10 0.15 0.11 0.09 0.10 0.23 0.31 0.21 0.13 0.03 0.03 0.04 0.04 0.07 0.11 0.09 0.06 0.04 0.05 0.15 0.09 0.00 0.00 0.00 0.00 0.00 0.00 0.00 0.01 0.02 0.04 0.04 0.04 0.04 0.03 0.01 0.02 0.06 0.18 0.44 0.52 0.58 0.30 0.09 0.16 0.05 0.04 0.05 0.04 0.08 0.11 0.22
0.09 0.07 0.11 0.14 0.16 0.14 0.09 0.13 0.30 0.25 0.13 0.04 0.02 0.03 0.04 0.05 0.11 0.12 0.11 0.06 0.02 0.07 0.06 0.01 0.00 0.00 0.00 0.00 0.00 0.00 0.00 0.00 0.01 0.03 0.04 0.03 0.01 0.02 0.01 0.09 0.29 0.41 0.65 0.65 0.59 0.23 0.35 0.12 0.07 0.09 0.07 0.10 0.23 0.15
0.13 0.10 0.05 0.12 0.17 0.16 0.13 0.14 0.23 0.20 0.08 0.02 0.01 0.02 0.04 0.07 0.14 0.16 0.16 0.04 0.02 0.06 0.13 0.03 0.00 0.00 0.00 0.00 0.00 0.00 0.00 0.00 0.02 0.03 0.02 0.03 0.02 0.07 0.07 0.06 0.10 0.17 0.63 0.83 0.75 0.48 0.36 0.37 0.20 0.09 0.21 0.32 0.40 0.42
0.15 0.11 0.11 0.07 0.14 0.18 0.19 0.11 0.25 0.19 0.05 0.02 0.01 0.02 0.06 0.11 0.11 0.06 0.06 0.06 0.02 0.08 0.17 0.05 0.01 0.01 0.00 0.00 0.00 0.00 0.01 0.02 0.03 0.04 0.02 0.02 0.04 0.07 0.05 0.02 0.00 0.06 0.22 0.47 0.67 0.91 0.84 0.70 0.91 0.70 0.37 0.28 0.31 0.13
0.15 0.12 0.16 0.05 0.13 0.17 0.24 0.13 0.16 0.21 0.04 0.01 0.00 0.03 0.12 0.17 0.19 0.07 0.02 0.35 0.56 0.24 0.16 0.07 0.01 0.03 0.01 0.02 0.01 0.01 0.01 0.04 0.07 0.06 0.03 0.02 0.04 0.05 0.02 0.01 0.00 0.01 0.05 0.09 0.10 0.16 0.44 0.49 0.47 0.44 0.21 0.07 0.01 0.01
0.14 0.11 0.18 0.07 0.12 0.19 0.28 0.15 0.12 0.18 0.05 0.03 0.05 0.13 0.34 0.39 0.25 0.06 0.02 0.16 0.45 0.57 0.29 0.05 0.03 0.08 0.01 0.02 0.04 0.04 0.04 0.06 0.05 0.07 0.02 0.06 0.04 0.05 0.03 0.01 0.00 0.01 0.01 0.01 0.00 0.01 0.02 0.02 0.02 0.04 0.07 0.04 0.01 0.00
0.14 0.11 0.18 0.06 0.12 0.18 0.27 0.11 0.13 0.13 0.07 0.14 0.37 0.50 0.45 0.12 0.04 0.06 0.16 0.27 0.36 0.35 0.21 0.07 0.00 0.03 0.02 0.02 0.09 0.19 0.27 0.12 0.11 0.04 0.04 0.10 0.07 0.05 0.02 0.01 0.01 0.01 0.00 0.00 0.00 0.00 0.00 0.00 0.00 0.00 0.00 0.02 0.02 0.02
0.15 0.15 0.12 0.06 0.12 0.16 0.17 0.10 0.16 0.17 0.35 0.49 0.37 0.20 0.08 0.07 0.18 0.23 0.34 0.23 0.14 0.13 0.06 0.01 0.00 0.01 0.01 0.02 0.11 0.21 0.40 0.26 0.11 0.05 0.05 0.07 0.10 0.05 0.04 0.02 0.01 0.01 0.00 0.00 0.00 0.00 0.00 0.00 0.00 0.00 0.00 0.00 0.00 0.01
0.14 0.16 0.06 0.06 0.11 0.10 0.07 0.16 0.27 0.41 0.36 0.15 0.11 0.19 0.47 0.28 0.22 0.25 0.32 0.17 0.03 0.00 0.00 0.00 0.00 0.00 0.01 0.03 0.18 0.24 0.18 0.11 0.07 0.05 0.08 0.07 0.06 0.03 0.01 0.01 0.01 0.00 0.00 0.00 0.00 0.00 0.00 0.00 0.00 0.00 0.00 0.01 0.01 0.01
0.14 0.12 0.06 0.10 0.08 0.06 0.12 0.25 0.30 0.17 0.06 0.23 0.42 0.50 0.39 0.16 0.27 0.10 0.09 0.07 0.01 0.00 0.00 0.00 0.01 0.00 0.01 0.06 0.21 0.41 0.50 0.17 0.17 0.18 0.10 0.06 0.05 0.04 0.03 0.01 0.00 0.00 0.00 0.00 0.00 0.00 0.00 0.00 0.00 0.00 0.00 0.01 0.01 0.01
0.11 0.06 0.09 0.08 0.09 0.10 0.20 0.26 0.23 0.22 0.28 0.44 0.40 0.33 0.15 0.04 0.05 0.01 0.01 0.02 0.01 0.00 0.00 0.00 0.01 0.03 0.02 0.06 0.10 0.18 0.35 0.46 0.41 0.13 0.07 0.08 0.05 0.03 0.02 0.03 0.01 0.01 0.00 0.00 0.00 0.00 0.00 0.00 0.00 0.01 0.01 0.01 0.01 0.01
0.05 0.05 0.08 0.09 0.14 0.15 0.19 0.26 0.32 0.35 0.45 0.45 0.22 0.12 0.02 0.01 0.01 0.01 0.01 0.01 0.00 0.00 0.01 0.03 0.05 0.05 0.12 0.09 0.12 0.07 0.06 0.08 0.09 0.09 0.12 0.12 0.04 0.01 0.01 0.00 0.00 0.00 0.00 0.00 0.00 0.00 0.00 0.00 0.00 0.01 0.01 0.01 0.01 0.01
0.05 0.17 0.15 0.13 0.16 0.20 0.35 0.53 0.47 0.28 0.20 0.15 0.03 0.02 0.02 0.01 0.01 0.01 0.02 0.01 0.00 0.00 0.04 0.14 0.15 0.07 0.11 0.07 0.04 0.04 0.02 0.04 0.05 0.04 0.02 0.01 0.01 0.01 0.01 0.01 0.00 0.00 0.00 0.00 0.00 0.00 0.00 0.00 0.00 0.00 0.00 0.00 0.01 0.01
0.24 0.26 0.10 0.20 0.37 0.50 0.44 0.30 0.19 0.15 0.05 0.02 0.01 0.02 0.01 0.01 0.01 0.02 0.02 0.02 0.01 0.04 0.09 0.12 0.28 0.23 0.09 0.03 0.01 0.00 0.01 0.02 0.02 0.02 0.01 0.00 0.01 0.01 0.01 0.00 0.01 0.00 0.00 0.00 0.00 0.00 0.00 0.00 0.00 0.00 0.01 0.01 0.01 0.01
0.17 0.09 0.19 0.34 0.44 0.31 0.20 0.11 0.08 0.06 0.03 0.01 0.01 0.02 0.00 0.02 0.02 0.01 0.01 0.03 0.05 0.05 0.04 0.04 0.01 0.02 0.03 0.03 0.01 0.02 0.04 0.04 0.02 0.01 0.00 0.00 0.00 0.00 0.00 0.00 0.01 0.01 0.01 0.01 0.00 0.00 0.00 0.00 0.00 0.01 0.00 0.01 0.00 0.00
0.09 0.08 0.08 0.08 0.04 0.04 0.14 0.04 0.00 0.01 0.02 0.01 0.02 0.01 0.01 0.02 0.03 0.02 0.02 0.04 0.06 0.06 0.05 0.03 0.07 0.03 0.01 0.01 0.02 0.03 0.03 0.03 0.02 0.01 0.02 0.01 0.00 0.00 0.00 0.00 0.00 0.00 0.01 0.01 0.01 0.00 0.00 0.00 0.01 0.01 0.01 0.01 0.00 0.00
0.14 0.10 0.05 0.04 0.02 0.01 0.01 0.00 0.00 0.00 0.01 0.00 0.00 0.00 0.00 0.01 0.01 0.01 0.01 0.01 0.03 0.04 0.04 0.03 0.03 0.02 0.03 0.04 0.05 0.05 0.05 0.05 0.04 0.04 0.03 0.02 0.02 0.01 0.00 0.00 0.01 0.01 0.01 0.01 0.00 0.00 0.00 0.01 0.01 0.00 0.01 0.00 0.01 0.01
0.18 0.12 0.08 0.04 0.02 0.01 0.00 0.00 0.00 0.00 0.00 0.00 0.00 0.00 0.00 0.00 0.00 0.01 0.00 0.00 0.01 0.02 0.02 0.03 0.04 0.05 0.05 0.05 0.05 0.04 0.04 0.04 0.04 0.04 0.05 0.03 0.03 0.02 0.01 0.01 0.00 0.01 0.01 0.01 0.01 0.01 0.01 0.01 0.01 0.01 0.01 0.01 0.01 0.01
0.09 0.06 0.07 0.02 0.00 0.00 0.00 0.00 0.00 0.00 0.00 0.01 0.00 0.00 0.00 0.01 0.00 0.00 0.00 0.00 0.01 0.03 0.02 0.03 0.04 0.04 0.03 0.03 0.04 0.04 0.04 0.02 0.02 0.03 0.03 0.03 0.03 0.02 0.02 0.01 0.01 0.01 0.01 0.02 0.01 0.02 0.02 0.01 0.01 0.01 0.02 0.02 0.02 0.02
0.01 0.01 0.00 0.02 0.02 0.00 0.00 0.03 0.00 0.00 0.00 0.02 0.00 0.00 0.00 0.00 0.00 0.00 0.00 0.01 0.02 0.05 0.03 0.03 0.05 0.05 0.04 0.06 0.04 0.03 0.03 0.02 0.01 0.02 0.02 0.02 0.02 0.02 0.02 0.02 0.02 0.02 0.02 0.02 0.02 0.02 0.02 0.02 0.02 0.02 0.02 0.02 0.02 0.02
0.00 0.01 0.02 0.03 0.01 0.02 0.02 0.01 0.00 0.00 0.00 0.00 0.00 0.00 0.00 0.00 0.00 0.00 0.00 0.01 0.04 0.06 0.04 0.03 0.02 0.02 0.01 0.01 0.01 0.01 0.01 0.00 0.00 0.01 0.01 0.01 0.01 0.01 0.02 0.02 0.02 0.02 0.02 0.02 0.02 0.02 0.02 0.02 0.02 0.02 0.02 0.02 0.02 0.02
0.03 0.01 0.00 0.00 0.00 0.00 0.00 0.00 0.00 0.00 0.00 0.00 0.00 0.01 0.00 0.00 0.00 0.00 0.00 0.01 0.01 0.01 0.01 0.00 0.00 0.00 0.00 0.01 0.01 0.01 0.00 0.00 0.00 0.01 0.01 0.01 0.01 0.01 0.01 0.01 0.02 0.02 0.03 0.03 0.03 0.03 0.02 0.02 0.02 0.01 0.01 0.01 0.01 0.01
0.00 0.00 0.00 0.00 0.00 0.00 0.00 0.00 0.00 0.00 0.00 0.00 0.00 0.00 0.00 0.00 0.00 0.00 0.00 0.00 0.01 0.01 0.00 0.00 0.00 0.00 0.00 0.00 0.00 0.00 0.01 0.00 0.00 0.00 0.01 0.01 0.01 0.01 0.01 0.01 0.01 0.01 0.01 0.02 0.03 0.03 0.03 0.02 0.02 0.02 0.02 0.02 0.01 0.01
0.00 0.00 0.00 0.00 0.00 0.00 0.00 0.00 0.00 0.00 0.00 0.00 0.00 0.00 0.00 0.00 0.00 0.00 0.00 0.00 0.00 0.00 0.00 0.00 0.00 0.00 0.00 0.00 0.00 0.01 0.00 0.00 0.00 0.00 0.01 0.00 0.00 0.01 0.01 0.01 0.01 0.02 0.02 0.02 0.02 0.02 0.02 0.02 0.03 0.03 0.03 0.03 0.02 0.02
0.00 0.00 0.00 0.00 0.00 0.00 0.00 0.00 0.00 0.00 0.00 0.00 0.00 0.00 0.00 0.00 0.00 0.01 0.00 0.00 0.00 0.00 0.00 0.00 0.00 0.00 0.00 0.00 0.00 0.01 0.01 0.00 0.00 0.00 0.00 0.00 0.00 0.00 0.00 0.01 0.00 0.00 0.00 0.01 0.01 0.01 0.01 0.01 0.02 0.02 0.02 0.02 0.02 0.01
0.00 0.00 0.00 0.00 0.00 0.00 0.00 0.00 0.00 0.01 0.01 0.00 0.00 0.00 0.01 0.01 0.02 0.01 0.01 0.00 0.00 0.00 0.00 0.00 0.00 0.00 0.00 0.00 0.00 0.01 0.01 0.01 0.01 0.00 0.00 0.00 0.00 0.00 0.00 0.00 0.00 0.00 0.00 0.01 0.01 0.01 0.00 0.00 0.00 0.00 0.00 0.01 0.01 0.01
0.00 0.00 0.00 0.00 0.00 0.00 0.01 0.01 0.01 0.01 0.00 0.00 0.00 0.00 0.01 0.02 0.03 0.02 0.01 0.00 0.00 0.00 0.00 0.00 0.00 0.00 0.00 0.00 0.00 0.00 0.01 0.01 0.01 0.01 0.00 0.00 0.00 0.00 0.00 0.00 0.00 0.00 0.00 0.00 0.01 0.01 0.02 0.01 0.01 0.01 0.00 0.01 0.01 0.01
0.00 0.00 0.00 0.00 0.00 0.01 0.01 0.01 0.00 0.00 0.00 0.00 0.00 0.00 0.01 0.03 0.03 0.03 0.02 0.01 0.00 0.00 0.00 0.00 0.00 0.00 0.00 0.00 0.00 0.00 0.00 0.00 0.00 0.00 0.00 0.00 0.00 0.00 0.00 0.00 0.00 0.00 0.00 0.00 0.00 0.00 0.01 0.01 0.01 0.00 0.01 0.00 0.00 0.00
0.00 0.00 0.00 0.00 0.01 0.01 0.01 0.00 0.00 0.00 0.00 0.00 0.00 0.00 0.00 0.00 0.00 0.01 0.01 0.01 0.00 0.00 0.00 0.00 0.00 0.00 0.00 0.00 0.00 0.00 0.00 0.00 0.00 0.00 0.00 0.00 0.00 0.00 0.00 0.00 0.00 0.00 0.00 0.00 0.00 0.00 0.00 0.01 0.01 0.00 0.01 0.00 0.00 0.00
0.00 0.00 0.00 0.00 0.00 0.01 0.00 0.00 0.00 0.00 0.00 0.00 0.00 0.00 0.00 0.00 0.00 0.00 0.01 0.01 0.00 0.00 0.00 0.00 0.00 0.00 0.00 0.00 0.00 0.00 0.00 0.00 0.00 0.00 0.00 0.00 0.00 0.00 0.00 0.00 0.00 0.00 0.00 0.00 0.00 0.00 0.00 0.00 0.00 0.00 0.00 0.00 0.00 0.00